Location: Bernadets
(43.3537°N, 0.3167°E)
Time: 03:34:59
(UTC+00:00)

Cosmos 1844 Rocket - Pass Details

Date: 24 October 2021
Orbit: 826 x 843 km, 71.0° (Epoch: 29 November)

Event Time Altitude Azimuth Distance (km) Brightness Sun altitude
Rises 19:04:19 0° 333° (NNW) 3,374 6.3 -23.0°
Reaches altitude 10° 19:06:45 10° 333° (NNW) 2,436 5.5 -23.4°
Maximum altitude 19:12:19 77° 248° (WSW) 850 2.7 -24.4°
Enters shadow 19:14:55 33° 167° (SSE) 1,363 3.6 -24.9°
